sat.trackr.live / text

‹ back to catalog

STARLINK-36213

NORAD 67212 · 2025-304W

PAYLOAD ACTIVE UNKNOWN

§ Identity

Operator
Country
US
Launch date
2025-12-17
Launch site
AFWTR
Launch vehicle
Mass (kg)
RCS (m²)

Purposes: comms

External: N2YO · Heavens-Above · Gunter

§ Orbital elements

Epoch: 2026-09-20T03:19:22.808352Z

Period
96.11 min
Inclination
70.0019°
Eccentricity
0.0002861
Mean motion
14.98335277 rev/d
Perigee alt
570.1 km
Apogee alt
574.0 km
Semi-major
6,950.2 km
B*
2.2695e-4
RAAN
44.0829°
Arg perigee
268.9508°
Mean anomaly
91.1323°
Rev number
4,301

§ Raw data

STARLINK-362131 67212U 25304W   26263.13845843  .00002616  00000+0  22695-3 0  99982 67212  70.0019  44.0829 0002861 268.9508  91.1323 14.98335277 43015

JSON: /api/v1/satellites/67212 · /tle

For live sub-satellite position, see the globe view (requires WebGL).

§ Visibility from observer

Set your observer location to see the next 7 days of passes ≥ 10°. The values pass through the URL so the page stays shareable.

No JS? Fill the form by hand. The geolocation button needs JavaScript.